Список аэропортов
Фактическая погода:

21 апреля, 19:00
Температура: +16°C (+14.5*)
Ветер: сев.-западный 8 м/с
Давление: *760 мм
неб. 750 м
Время (МСК)Темп. СВетерВлажностьДавлениеОблачностьОсадки
15:00+17З, 6 м/с39%1012 гПаясно
16:00+17З, 6 м/с37%1012 гПаясно
17:00+16З, 6 м/с39%1012 гПаясно
18:00+16З, 7 м/с40%1012 гПаясно
19:00+15З, 7 м/с42%1013 гПаясно
20:00+15ЮЗ, 6 м/с46%1013 гПаясно
21:00+15ЮЗ, 6 м/с50%1013 гПаясно
22:00+15З, 7 м/с58%1013 гПаясно
23:00+14З, 7 м/с59%1013 гПаясно
22 апреля
00:00+15З, 7 м/с59%1013 гПаясно
01:00+15З, 8 м/с60%1013 гПаясно
02:00+14З, 8 м/с64%1012 гПаясно
03:00+14З, 7 м/с66%1012 гПаясно
04:00+14З, 6 м/с67%1012 гПаясно
05:00+14З, 5 м/с67%1011 гПаясно
06:00+13З, 4 м/с70%1012 гПамалооблачно
07:00+13З, 4 м/с69%1012 гПамалооблачно
08:00+15З, 4 м/с56%1012 гПаясно
09:00+16СЗ, 5 м/с46%1013 гПаясно
10:00+17СЗ, 5 м/с43%1013 гПаясно
11:00+18СЗ, 5 м/с40%1013 гПаясно
12:00+18СЗ, 4 м/с37%1014 гПамалооблачно
13:00+19З, 2 м/с36%1014 гПамалооблачно
14:00+19ЮВ, 5 м/с46%1014 гПамалооблачно
15:00+18ЮВ, 7 м/с54%1014 гПамалооблачно
16:00+19ЮВ, 5 м/с54%1014 гПамалооблачно
17:00+19Ю, 2 м/с45%1014 гПамалооблачно
18:00+20З, 2 м/с37%1014 гПамалооблачно
19:00+19З, 3 м/с36%1015 гПаясно
20:00+18З, 4 м/с40%1016 гПаясно
21:00+17СЗ, 5 м/с44%1017 гПаясно
22:00+16З, 6 м/с46%1017 гПаясно
23:00+16З, 5 м/с50%1018 гПаясно
23 апреля
00:00+15З, 5 м/с50%1018 гПаясно
01:00+16З, 6 м/с45%1019 гПаясно
02:00+15З, 5 м/с44%1018 гПаясно
03:00+15З, 4 м/с49%1019 гПаясно
04:00+14З, 4 м/с53%1019 гПаясно
05:00+14З, 3 м/с57%1019 гПаясно
06:00+13З, 2 м/с62%1019 гПаясно
07:00+14З, 2 м/с58%1020 гПаясно
08:00+16З, 3 м/с45%1021 гПаясно
09:00+19СЗ, 5 м/с41%1021 гПаясно
10:00+20СЗ, 4 м/с41%1022 гПаясно
11:00+21СЗ, 3 м/с37%1023 гПаясно
12:00+22З, 2 м/с34%1023 гПаясно
13:00+22Ю, 2 м/с36%1023 гПаясно
14:00+21Ю, 5 м/с43%1023 гПаясно
15:00+21Ю, 7 м/с44%1023 гПаясно